FW6253 Weather Reports


Display with metric or nautical units.
time (UTC)temp
F
wind
direction
speed
MPH
gust
MPH
rain 1hr
in
rain 24hr
in
rain mn
in
humidity
%
barometer
mb
20260510184554 85 144 5.0 13.0 0.00 0.00 0.00 66 1013.0
20260510184056 85 132 3.0 10.0 0.00 0.00 0.00 65 1013.1
20260510183552 85 49 2.0 7.0 0.00 0.00 0.00 68 1013.2
20260510183056 85 82 2.0 7.0 0.00 0.00 0.00 65 1013.1
20260510182552 85 167 2.0 10.0 0.00 0.00 0.00 65 1013.3
20260510182051 84 56 2.0 10.0 0.00 0.00 0.00 68 1013.3
20260510181601 84 111 2.0 11.0 0.00 0.00 0.00 68 1013.5
20260510181052 85 111 2.0 11.0 0.00 0.00 0.00 68 1013.6
20260510180552 84 52 2.0 9.0 0.00 0.00 0.00 69 1013.7
20260510180109 84 65 2.0 8.0 0.00 0.00 0.00 69 1013.8
20260510175551 84 138 2.0 8.0 0.00 0.00 0.00 71 1013.9
20260510175052 84 147 2.0 9.0 0.00 0.00 0.00 70 1013.9
20260510174555 84 90 2.0 10.0 0.00 0.00 0.00 69 1014.0
20260510174053 83 123 1.0 10.0 0.00 0.00 0.00 72 1014.0
20260510173553 82 80 1.0 10.0 0.00 0.00 0.00 72 1014.0
20260510173102 82 74 3.0 9.0 0.00 0.00 0.00 71 1014.1
20260510172552 83 360 3.0 9.0 0.00 0.00 0.00 71 1014.0
20260510172051 82 65 2.0 9.0 0.00 0.00 0.00 72 1013.9
20260510171609 82 127 3.0 9.0 0.00 0.00 0.00 72 1014.0
20260510171051 82 80 3.0 9.0 0.00 0.00 0.00 72 1013.9
20260510170551 82 44 2.0 11.0 0.00 0.00 0.00 71 1013.9
20260510170058 81 81 4.0 11.0 0.00 0.00 0.00 73 1013.9
20260510165552 81 138 2.0 7.0 0.00 0.00 0.00 73 1014.0
20260510165051 83 70 2.0 10.0 0.00 0.00 0.00 72 1014.0
20260510164603 82 34 2.0 10.0 0.00 0.00 0.00 72 1013.9
20260510164051 82 52 1.0 9.0 0.00 0.00 0.00 72 1013.8
20260510163552 83 165 2.0 9.0 0.00 0.00 0.00 70 1013.8
20260510163059 83 149 1.0 9.0 0.00 0.00 0.00 71 1013.8
20260510162553 83 118 2.0 8.0 0.00 0.00 0.00 72 1013.7
20260510162052 83 146 2.0 8.0 0.00 0.00 0.00 69 1013.7
20260510161556 83 134 2.0 8.0 0.00 0.00 0.00 70 1013.7
20260510161052 82 156 2.0 8.0 0.00 0.00 0.00 71 1013.6
20260510160552 83 132 1.0 7.0 0.00 0.00 0.00 71 1013.5
20260510160056 82 142 2.0 7.0 0.00 0.00 0.00 72 1013.5
20260510155555 82 121 2.0 7.0 0.00 0.00 0.00 72 1013.4
20260510155055 81 121 2.0 7.0 0.00 0.00 0.00 73 1013.3
20260510154558 81 0 2.0 7.0 0.00 0.00 0.00 73 1013.3
20260510154052 81 106 1.0 7.0 0.00 0.00 0.00 74 1013.2
20260510153551 81 147 1.0 5.0 0.00 0.00 0.00 75 1013.2
20260510153058 80 139 1.0 7.0 0.00 0.00 0.00 76 1013.2
20260510152551 80 124 2.0 8.0 0.00 0.00 0.00 76 1013.2
20260510152055 80 162 1.0 8.0 0.00 0.00 0.00 75 1013.2
20260510151559 80 154 1.0 7.0 0.00 0.00 0.00 76 1013.1
20260510151054 79 130 1.0 8.0 0.00 0.00 0.00 77 1013.2
20260510150554 79 167 2.0 8.0 0.00 0.00 0.00 76 1013.1
20260510150108 80 208 2.0 8.0 0.00 0.00 0.00 76 1013.0
20260510145555 79 161 1.0 6.0 0.00 0.00 0.00 77 1013.0
20260510145055 78 121 2.0 6.0 0.00 0.00 0.00 77 1013.0
20260510144610 79 176 2.0 9.0 0.00 0.00 0.00 78 1012.9
20260510144052 78 152 2.0 10.0 0.00 0.00 0.00 79 1012.8
20260510143553 78 189 2.0 10.0 0.00 0.00 0.00 79 1012.9
20260510143100 78 206 2.0 6.0 0.00 0.00 0.00 80 1012.7
20260510142554 77 0 1.0 7.0 0.00 0.00 0.00 81 1012.7
20260510142055 77 159 3.0 8.0 0.00 0.00 0.00 81 1012.6
20260510141555 76 188 2.0 8.0 0.00 0.00 0.00 82 1012.5
20260510141054 76 184 2.0 8.0 0.00 0.00 0.00 82 1012.5
20260510140554 76 0 3.0 9.0 0.00 0.00 0.00 83 1012.4
20260510140053 75 174 4.0 9.0 0.00 0.00 0.00 84 1012.3
20260510135554 75 184 3.0 7.0 0.00 0.00 0.00 84 1012.3
20260510135054 74 159 3.0 7.0 0.00 0.00 0.00 84 1012.2
20260510134558 74 167 3.0 7.0 0.00 0.00 0.00 84 1012.1
20260510134055 73 167 1.0 8.0 0.00 0.00 0.00 86 1012.1
20260510133554 73 170 2.0 8.0 0.00 0.00 0.00 86 1012.2
20260510133054 73 166 1.0 6.0 0.00 0.00 0.00 87 1012.1
20260510132554 72 0 2.0 6.0 0.00 0.00 0.00 87 1012.0
20260510132053 72 165 1.0 7.0 0.00 0.00 0.00 88 1012.0
20260510131554 71 180 2.0 7.0 0.00 0.00 0.00 88 1012.0
20260510131055 71 173 2.0 6.0 0.00 0.00 0.00 88 1011.9
20260510130552 70 0 2.0 4.0 0.00 0.00 0.00 89 1011.8
20260510130108 70 194 1.0 4.0 0.00 0.00 0.00 89 1011.7
20260510125551 69 195 1.0 4.0 0.00 0.00 0.00 90 1011.5
20260510125051 69 0 0.0 3.0 0.00 0.00 0.00 90 1011.5
20260510124600 69 191 0.0 3.0 0.00 0.00 0.00 90 1011.4
20260510124052 68 191 0.0 4.0 0.00 0.00 0.00 90 1011.4
20260510123554 68 0 1.0 4.0 0.00 0.00 0.00 90 1011.4
20260510123056 68 190 1.0 4.0 0.00 0.00 0.00 90 1011.5
20260510122557 68 190 1.0 3.0 0.00 0.00 0.00 90 1011.5
20260510122054 67 187 1.0 3.0 0.00 0.00 0.00 90 1011.3
20260510121555 67 188 0.0 2.0 0.00 0.00 0.00 89 1011.4
20260510121054 67 0 0.0 2.0 0.00 0.00 0.00 89 1011.3
20260510120552 67 188 0.0 2.0 0.00 0.00 0.00 89 1011.2
20260510120054 67 0 0.0 3.0 0.00 0.00 0.00 88 1011.3
20260510115551 67 0 0.0 3.0 0.00 0.00 0.00 88 1011.2
20260510115052 67 0 0.0 3.0 0.00 0.00 0.00 88 1011.3
20260510114553 67 0 1.0 3.0 0.00 0.00 0.00 87 1011.2
20260510114051 67 0 1.0 3.0 0.00 0.00 0.00 87 1011.2
20260510113552 68 184 1.0 4.0 0.00 0.00 0.00 87 1011.2
20260510113059 68 0 0.0 4.0 0.00 0.00 0.00 87 1011.2
20260510112551 68 181 1.0 4.0 0.00 0.00 0.00 86 1011.1
20260510112055 68 0 0.0 3.0 0.00 0.00 0.00 86 1011.2
20260510111554 68 0 0.0 6.0 0.00 0.00 0.00 86 1011.2
20260510111054 68 180 1.0 6.0 0.00 0.00 0.00 86 1011.2
20260510110554 68 171 1.0 4.0 0.00 0.00 0.00 86 1011.2
20260510110055 68 172 1.0 5.0 0.00 0.00 0.00 85 1011.1
20260510105554 68 171 1.0 5.0 0.00 0.00 0.00 85 1011.1
20260510105052 69 171 1.0 6.0 0.00 0.00 0.00 85 1011.1
20260510104555 69 168 2.0 6.0 0.00 0.00 0.00 85 1011.2
20260510104053 69 158 2.0 6.0 0.00 0.00 0.00 85 1011.1
20260510103551 69 0 1.0 5.0 0.00 0.00 0.00 85 1011.2
20260510103055 69 140 3.0 5.0 0.00 0.00 0.00 86 1011.1
20260510102552 69 161 1.0 5.0 0.00 0.00 0.00 86 1011.2
20260510102052 69 157 1.0 4.0 0.00 0.00 0.00 86 1011.3
20260510101558 69 0 0.0 0.0 0.00 0.00 0.00 86 1011.3
20260510101057 69 0 0.0 1.0 0.00 0.00 0.00 86 1011.3
20260510100554 69 0 0.0 1.0 0.00 0.00 0.00 86 1011.2
20260510095553 69 0 0.0 0.0 0.00 0.00 0.00 85 1011.3
20260510095054 70 0 0.0 1.0 0.00 0.00 0.00 85 1011.3
20260510094552 70 0 0.0 2.0 0.00 0.00 0.00 84 1011.4
20260510094053 70 0 0.0 4.0 0.00 0.00 0.00 84 1011.3
20260510093554 70 169 0.0 5.0 0.00 0.00 0.00 84 1011.3
20260510093056 70 169 1.0 5.0 0.00 0.00 0.00 84 1011.2
20260510092552 70 168 1.0 3.0 0.00 0.00 0.00 84 1011.2
20260510092051 70 171 0.0 2.0 0.00 0.00 0.00 83 1011.1
20260510091557 70 0 0.0 4.0 0.00 0.00 0.00 83 1011.0
20260510091051 71 0 0.0 4.0 0.00 0.00 0.00 83 1011.0
20260510090551 71 171 0.0 4.0 0.00 0.00 0.00 83 1011.1
20260510090054 71 0 0.0 4.0 0.00 0.00 0.00 83 1011.1
20260510085556 71 0 0.0 6.0 0.00 0.00 0.00 83 1011.1
20260510085055 71 174 1.0 6.0 0.00 0.00 0.00 83 1011.1
20260510084553 71 169 1.0 5.0 0.00 0.00 0.00 83 1011.0
20260510084051 71 169 0.0 4.0 0.00 0.00 0.00 83 1011.0
20260510083554 71 169 0.0 3.0 0.00 0.00 0.00 83 1011.1
20260510083059 71 171 0.0 3.0 0.00 0.00 0.00 83 1011.0
20260510082553 71 0 0.0 3.0 0.00 0.00 0.00 83 1010.9
20260510082052 71 178 0.0 2.0 0.00 0.00 0.00 83 1010.9
20260510081600 71 0 0.0 0.0 0.00 0.00 0.00 83 1010.9
20260510081052 71 0 0.0 0.0 0.00 0.00 0.00 83 1010.9
20260510080552 71 0 0.0 0.0 0.00 0.00 0.00 83 1010.9
20260510080105 71 0 0.0 0.0 0.00 0.00 0.00 82 1010.8
20260510075551 71 0 0.0 3.0 0.00 0.00 0.00 82 1010.8
20260510075051 72 0 0.0 3.0 0.00 0.00 0.00 82 1010.8
20260510074600 72 0 0.0 3.0 0.00 0.00 0.00 81 1010.9
20260510074052 72 0 0.0 1.0 0.00 0.00 0.00 81 1010.9
20260510073553 72 0 0.0 2.0 0.00 0.00 0.00 80 1010.9
20260510073116 73 0 0.0 4.0 0.00 0.00 0.00 80 1010.8
20260510072553 73 0 0.0 4.0 0.00 0.00 0.00 79 1011.0
20260510072053 73 174 0.0 4.0 0.00 0.00 0.00 79 1010.9
20260510071606 73 167 0.0 6.0 0.00 0.00 0.00 79 1010.9
20260510071052 73 173 2.0 6.0 0.00 0.00 0.00 79 1011.0
20260510070554 74 178 1.0 5.0 0.00 0.00 0.00 78 1011.0
20260510065552 74 0 0.0 5.0 0.00 0.00 0.00 78 1011.0
20260510065051 74 173 1.0 5.0 0.00 0.00 0.00 77 1011.0
20260510064637 74 167 0.0 6.0 0.00 0.00 0.00 77 1011.0
20260510064051 74 163 0.0 8.0 0.00 0.00 0.00 77 1011.0
20260510063553 74 167 2.0 8.0 0.00 0.00 0.00 77 1011.0
20260510063111 75 163 1.0 6.0 0.00 0.00 0.00 77 1011.0
20260510062552 75 192 2.0 7.0 0.00 0.00 0.00 76 1011.0
20260510062053 75 185 3.0 7.0 0.00 0.00 0.00 76 1011.0
20260510061609 75 186 3.0 7.0 0.00 0.00 0.00 76 1011.2
20260510061052 75 167 2.0 5.0 0.00 0.00 0.00 77 1011.1
20260510060554 75 161 1.0 5.0 0.00 0.00 0.00 77 1011.1
20260510060059 75 0 0.0 5.0 0.00 0.00 0.00 76 1011.2
20260510055552 75 155 0.0 4.0 0.00 0.00 0.00 76 1011.1
20260510055052 75 167 0.0 5.0 0.00 0.00 0.00 76 1011.1
20260510054556 75 165 0.0 5.0 0.00 0.00 0.00 76 1011.0
20260510054052 76 0 0.0 5.0 0.00 0.00 0.00 75 1011.0
20260510053553 76 105 0.0 5.0 0.00 0.00 0.00 75 1011.0
20260510053054 76 153 1.0 7.0 0.00 0.00 0.00 75 1011.0
20260510052552 76 163 1.0 7.0 0.00 0.00 0.00 75 1010.9
20260510052052 76 165 0.0 7.0 0.00 0.00 0.00 75 1010.9
20260510051557 76 161 2.0 7.0 0.00 0.00 0.00 75 1010.7
20260510051054 76 167 3.0 7.0 0.00 0.00 0.00 75 1010.7
20260510050552 76 168 2.0 7.0 0.00 0.00 0.00 75 1010.8
20260510050055 76 169 2.0 7.0 0.00 0.00 0.00 76 1010.8
20260510045552 76 123 0.0 3.0 0.00 0.00 0.00 76 1010.7
20260510045052 76 105 0.0 3.0 0.00 0.00 0.00 76 1010.7
20260510044551 76 0 0.0 4.0 0.00 0.00 0.00 76 1010.6
20260510044054 76 0 1.0 5.0 0.00 0.00 0.00 76 1010.7
20260510043552 76 146 0.0 5.0 0.00 0.00 0.00 76 1010.7
20260510043053 76 0 1.0 4.0 0.00 0.00 0.00 77 1010.6
20260510042552 76 0 0.0 2.0 0.00 0.00 0.00 77 1010.7
20260510042053 76 0 0.0 2.0 0.00 0.00 0.00 77 1010.6
20260510041553 76 78 0.0 1.0 0.00 0.00 0.00 77 1010.5
20260510041052 75 0 0.0 0.0 0.00 0.00 0.00 78 1010.4
20260510040551 75 0 0.0 0.0 0.00 0.00 0.00 78 1010.3
20260510040053 75 0 0.0 0.0 0.00 0.00 0.00 78 1010.4
20260510035553 75 0 0.0 0.0 0.00 0.00 0.00 79 1010.3
20260510035053 75 0 0.0 0.0 0.00 0.00 0.00 79 1010.3
20260510034612 75 0 0.0 0.0 0.00 0.00 0.00 78 1010.3
20260510034053 76 0 0.0 0.0 0.00 0.00 0.00 77 1010.2
20260510033553 76 0 0.0 0.0 0.00 0.00 0.00 76 1010.1
20260510033058 76 0 0.0 0.0 0.00 0.00 0.00 76 1010.2
20260510032551 77 0 0.0 0.0 0.00 0.00 0.00 76 1010.1
20260510032053 77 0 0.0 0.0 0.00 0.00 0.00 76 1010.2
20260510031551 77 0 0.0 0.0 0.00 0.00 0.00 76 1010.2
20260510031052 76 0 0.0 0.0 0.00 0.00 0.00 76 1010.1
20260510030553 76 0 0.0 0.0 0.00 0.00 0.00 76 1010.0
20260510030105 76 0 0.0 0.0 0.00 0.00 0.00 76 1010.0
20260510025551 77 0 0.0 0.0 0.00 0.00 0.00 75 1010.0
20260510025052 77 0 0.0 0.0 0.00 0.00 0.00 75 1010.0
20260510024559 77 0 0.0 1.0 0.00 0.00 0.00 75 1009.9
20260510024053 77 0 0.0 2.0 0.00 0.00 0.00 75 1009.8
20260510023552 77 0 0.0 2.0 0.00 0.00 0.00 74 1009.8
20260510023054 77 0 0.0 3.0 0.00 0.00 0.00 74 1009.7
20260510022554 78 0 0.0 3.0 0.00 0.00 0.00 73 1009.7
20260510022052 78 78 0.0 2.0 0.00 0.00 0.00 73 1009.7
20260510021602 78 0 0.0 2.0 0.00 0.00 0.00 72 1009.7
20260510021052 78 0 0.0 1.0 0.00 0.00 0.00 72 1009.6
20260510020551 78 0 0.0 2.0 0.00 0.00 0.00 72 1009.5
20260510020056 78 0 0.0 2.0 0.00 0.00 0.00 72 1009.5
20260510015552 78 0 0.0 1.0 0.00 0.00 0.00 71 1009.3
20260510015053 79 0 0.0 2.0 0.00 0.00 0.00 71 1009.2
20260510014607 79 0 0.0 3.0 0.00 0.00 0.00 71 1009.2
20260510014051 79 0 0.0 3.0 0.00 0.00 0.00 70 1009.1
20260510013556 79 0 0.0 2.0 0.00 0.00 0.00 70 1008.9
20260510013123 79 81 0.0 3.0 0.00 0.00 0.00 70 1008.9
20260510012553 80 80 0.0 3.0 0.00 0.00 0.00 69 1008.8
20260510012053 80 80 1.0 4.0 0.00 0.00 0.00 68 1008.7
20260510011554 80 84 0.0 4.0 0.00 0.00 0.00 67 1008.7
20260510011052 80 86 1.0 4.0 0.00 0.00 0.00 66 1008.6
20260510010551 81 71 0.0 4.0 0.00 0.00 0.00 65 1008.6
20260510010057 81 67 1.0 5.0 0.00 0.00 0.00 64 1008.4
20260510005553 81 70 1.0 5.0 0.00 0.00 0.00 62 1008.3
20260510005054 81 90 1.0 8.0 0.00 0.00 0.00 62 1008.3
20260510004557 81 89 1.0 8.0 0.00 0.00 0.00 61 1008.2
20260510004052 82 94 2.0 8.0 0.00 0.00 0.00 60 1008.2
20260510003554 82 103 2.0 6.0 0.00 0.00 0.00 60 1008.2
20260510003107 82 80 1.0 5.0 0.00 0.00 0.00 62 1008.1
20260510002556 83 101 1.0 4.0 0.00 0.00 0.00 65 1008.0
20260510002056 83 84 2.0 4.0 0.00 0.00 0.00 65 1007.9
20260510001554 82 111 0.0 2.0 0.00 0.00 0.00 66 1007.9
20260510001052 82 0 0.0 1.0 0.00 0.00 0.00 66 1007.8
20260510000554 83 0 0.0 2.0 0.00 0.00 0.00 65 1007.8
20260510000118 83 0 0.0 2.0 0.00 0.00 0.00 64 1007.8
20260509235553 83 0 0.0 0.0 0.00 0.00 0.00 64 1007.8
20260509235051 84 0 0.0 2.0 0.00 0.00 0.00 63 1007.6
20260509234556 84 0 0.0 2.0 0.00 0.00 0.00 62 1007.4
20260509234053 84 0 0.0 2.0 0.00 0.00 0.00 61 1007.4
20260509233553 84 0 0.0 4.0 0.00 0.00 0.00 61 1007.4
20260509233056 84 128 1.0 5.0 0.00 0.00 0.00 61 1007.7
20260509232553 84 173 1.0 9.0 0.00 0.00 0.00 61 1007.9
20260509232053 85 161 2.0 9.0 0.00 0.00 0.00 59 1007.9
20260509231601 86 159 0.0 4.0 0.00 0.00 0.00 59 1008.0
20260509231052 87 169 0.0 3.0 0.00 0.00 0.00 58 1007.9
20260509230553 87 192 0.0 3.0 0.00 0.00 0.00 56 1007.9
20260509230108 87 192 1.0 3.0 0.00 0.00 0.00 56 1008.0
20260509225552 87 0 0.0 3.0 0.00 0.00 0.00 57 1007.9
20260509225053 88 191 1.0 5.0 0.00 0.00 0.00 57 1007.8
20260509224556 88 187 0.0 5.0 0.00 0.00 0.00 56 1007.8
20260509224053 89 0 2.0 5.0 0.00 0.00 0.00 54 1007.8
20260509223553 89 171 1.0 4.0 0.00 0.00 0.00 53 1007.9
20260509223100 90 194 1.0 5.0 0.00 0.00 0.00 52 1007.8
20260509222552 90 194 1.0 6.0 0.00 0.00 0.00 54 1007.7
20260509222052 90 177 2.0 6.0 0.00 0.00 0.00 51 1007.7
20260509221607 90 247 1.0 6.0 0.00 0.00 0.00 53 1007.7
20260509221053 90 192 2.0 7.0 0.00 0.00 0.00 53 1007.7
20260509220551 90 162 3.0 9.0 0.00 0.00 0.00 54 1007.8
20260509220054 90 159 2.0 9.0 0.00 0.00 0.00 55 1007.8
20260509215553 90 118 2.0 12.0 0.00 0.00 0.00 54 1007.8
20260509215058 90 211 3.0 12.0 0.00 0.00 0.00 54 1007.8
20260509214601 90 182 1.0 5.0 0.00 0.00 0.00 53 1007.9
20260509214051 90 182 1.0 5.0 0.00 0.00 0.00 53 1007.9
20260509213551 89 163 0.0 6.0 0.00 0.00 0.00 54 1007.9
20260509213057 90 159 1.0 6.0 0.00 0.00 0.00 53 1008.0
20260509212552 90 152 2.0 6.0 0.00 0.00 0.00 54 1007.9
20260509212055 90 163 1.0 6.0 0.00 0.00 0.00 55 1007.9
20260509211554 90 160 0.0 6.0 0.00 0.00 0.00 54 1007.9
20260509211053 88 236 1.0 6.0 0.00 0.00 0.00 55 1008.1
20260509210553 89 249 2.0 5.0 0.00 0.00 0.00 54 1008.1
20260509210058 91 143 1.0 6.0 0.00 0.00 0.00 53 1008.3
20260509205552 90 154 2.0 11.0 0.00 0.00 0.00 52 1008.4
20260509205051 91 161 2.0 11.0 0.00 0.00 0.00 51 1008.4
20260509204555 91 183 2.0 9.0 0.00 0.00 0.00 54 1008.4
20260509204052 91 178 1.0 10.0 0.00 0.00 0.00 54 1008.5
20260509203557 91 193 2.0 10.0 0.00 0.00 0.00 55 1008.6
20260509203100 91 216 3.0 10.0 0.00 0.00 0.00 53 1008.6
20260509202553 91 233 3.0 9.0 0.00 0.00 0.00 52 1008.7
20260509202053 90 190 3.0 13.0 0.00 0.00 0.00 54 1008.7
20260509201556 90 209 2.0 13.0 0.00 0.00 0.00 56 1008.8
20260509201057 89 219 4.0 10.0 0.00 0.00 0.00 55 1008.9
20260509200553 89 109 2.0 9.0 0.00 0.00 0.00 56 1008.9
20260509200109 90 244 2.0 9.0 0.00 0.00 0.00 56 1009.1
20260509195556 89 206 3.0 9.0 0.00 0.00 0.00 57 1009.2
20260509195052 89 171 2.0 9.0 0.00 0.00 0.00 56 1009.4
20260509194557 90 169 2.0 8.0 0.00 0.00 0.00 57 1009.5
20260509194053 88 174 2.0 9.0 0.00 0.00 0.00 58 1009.6
20260509193551 88 206 4.0 9.0 0.00 0.00 0.00 57 1009.7
20260509193053 89 265 3.0 8.0 0.00 0.00 0.00 57 1009.7
20260509192552 89 238 1.0 9.0 0.00 0.00 0.00 58 1009.8
20260509192055 89 212 3.0 9.0 0.00 0.00 0.00 57 1009.9
20260509191553 90 198 2.0 7.0 0.00 0.00 0.00 57 1010.0
20260509191053 89 150 2.0 7.0 0.00 0.00 0.00 59 1010.1
20260509190553 89 218 3.0 8.0 0.00 0.00 0.00 57 1010.0
20260509190057 89 210 1.0 9.0 0.00 0.00 0.00 56 1010.1
20260509185553 89 205 4.0 9.0 0.00 0.00 0.00 59 1010.0
20260509185052 90 207 1.0 7.0 0.00 0.00 0.00 58 1010.1